QPF
0.00 0.00 0.00 0.00 0.00 0.00 0.00 0.00 0.00 0.00 0.00 0.00 0.00 0.00 0.00 0.00 0.00 0.00 0.00 0.00 0.00 0.00 0.00 0.00 0.00 0.00 0.00 0.00 0.00 0.00 0.00 0.00 0.00 0.00 0.00 0.00 0.00 0.00 0.00 0.00 0.00 0.00 0.00 0.00 0.00
0.00 0.00 0.00 0.00 0.00 0.00 0.00 0.00 0.00 0.00 0.00 0.00 0.00 0.00 0.00 0.00 0.00 0.00 0.00 0.00 0.00 0.00 0.00 0.00 0.00 0.00 0.00 0.00 0.00 0.00 0.00 0.00 0.00 0.00 0.00 0.00 0.00 0.00 0.00 0.00 0.00 0.00 0.00 0.00 0.00
0.00 0.00 0.00 0.00 0.00 0.00 0.00 0.00 0.00 0.00 0.00 0.00 0.00 0.00 0.00 0.00 0.00 0.00 0.00 0.00 0.00 0.00 0.00 0.00 0.00 0.00 0.00 0.00 0.00 0.00 0.00 0.00 0.00 0.00 0.00 0.00 0.00 0.00 0.00 0.00 0.00 0.00 0.00 0.00 0.00
0.00 0.00 0.00 0.00 0.00 0.00 0.00 0.00 0.00 0.00 0.00 0.00 0.00 0.00 0.00 0.00 0.00 0.00 0.00 0.00 0.00 0.00 0.00 0.00 0.00 0.00 0.00 0.00 0.00 0.00 0.00 0.00 0.00 0.00 0.00 0.00 0.00 0.00 0.00 0.00 0.00 0.00 0.00 0.00 0.00
0.00 0.00 0.00 0.00 0.00 0.00 0.00 0.00 0.00 0.00 0.00 0.00 0.00 0.00 0.00 0.00 0.00 0.00 0.00 0.00 0.00 0.00 0.00 0.00 0.00 0.00 0.00 0.00 0.00 0.00 0.00 0.00 0.00 0.00 0.00 0.00 0.00 0.00 0.00 0.00 0.00 0.00 0.00 0.00 0.00
0.00 0.00 0.00 0.00 0.00 0.00 0.00 0.00 0.00 0.00 0.00 0.00 0.00 0.00 0.00 0.00 0.00 0.00 0.00 0.00 0.00 0.00 0.00 0.00 0.00 0.00 0.00 0.00 0.00 0.00 0.00 0.00 0.00 0.00 0.00 0.00 0.00 0.00 0.00 0.00 0.00 0.00 0.00 0.00 0.00
0.00 0.00 0.00 0.00 0.00 0.00 0.00 0.00 0.00 0.00 0.00 0.00 0.00 0.00 0.00 0.00 0.00 0.00 0.00 0.00 0.00 0.00 0.00 0.00 0.00 0.00 0.00 0.00 0.00 0.00 0.00 0.00 0.00 0.00 0.00 0.00 0.00 0.00 0.00 0.00 0.00 0.00 0.00 0.00 0.00
0.00 0.00 0.00 0.00 0.00 0.00 0.00 0.00 0.00 0.00 0.00 0.00 0.00 0.00 0.00 0.00 0.00 0.00 0.00 0.00 0.00 0.00 0.00 0.00 0.00 0.00 0.00 0.00 0.00 0.00 0.00 0.00 0.00 0.00 0.00 0.00 0.00 0.00 0.00 0.00 0.00 0.00 0.00 0.00 0.00
0.00 0.00 0.00 0.00 0.00 0.00 0.00 0.00 0.00 0.00 0.00 0.00 0.00 0.00 0.00 0.00 0.00 0.00 0.00 0.00 0.00 0.00 0.00 0.00 0.00 0.00 0.00 0.00 0.00 0.00 0.00 0.00 0.00 0.00 0.00 0.00 0.00 0.00 0.00 0.00 0.00 0.00 0.00 0.00 0.00
0.00 0.00 0.00 0.00 0.00 0.00 0.00 0.00 0.00 0.00 0.00 0.00 0.00 0.00 0.00 0.00 0.00 0.00 0.00 0.00 0.00 0.00 0.00 0.00 0.00 0.00 0.00 0.00 0.00 0.00 0.00 0.00 0.00 0.00 0.00 0.00 0.00 0.00 0.00 0.00 0.00 0.00 0.00 0.00 0.00
0.00 0.00 0.00 0.00 0.00 0.00 0.00 0.00 0.00 0.00 0.00 0.00 0.00 0.00 0.00 0.00 0.00 0.00 0.00 0.00 0.00 0.00 0.00 0.00 0.00 0.00 0.00 0.00 0.00 0.00 0.00 0.00 0.00 0.00 0.00 0.00 0.00 0.00 0.00 0.00 0.00 0.00 0.00 0.00 0.00
0.00 0.00 0.00 0.00 0.00 0.00 0.00 0.00 0.00 0.00 0.00 0.00 0.00 0.00 0.00 0.00 0.00 0.00 0.00 0.00 0.00 0.00 0.00 0.00 0.00 0.00 0.00 0.00 0.00 0.00 0.00 0.00 0.00 0.00 0.00 0.00 0.00 0.00 0.00 0.00 0.00 0.00 0.00 0.00 0.00
0.00 0.00 0.00 0.00 0.00 0.00 0.00 0.00 0.00 0.00 0.00 0.00 0.00 0.00 0.00 0.00 0.00 0.00 0.00 0.00 0.00 0.00 0.00 0.00 0.00 0.00 0.00 0.00 0.00 0.00 0.00 0.00 0.00 0.00 0.00 0.00 0.00 0.00 0.00 0.00 0.00 0.00 0.00 0.00 0.00
0.00 0.00 0.00 0.00 0.00 0.00 0.00 0.00 0.00 0.00 0.00 0.00 0.00 0.00 0.00 0.00 0.00 0.00 0.00 0.00 0.00 0.00 0.00 0.00 0.00 0.00 0.00 0.00 0.00 0.00 0.00 0.00 0.00 0.00 0.00 0.00 0.00 0.00 0.00 0.00 0.00 0.00 0.00 0.00 0.00
0.00 0.00 0.00 0.00 0.00 0.00 0.00 0.00 0.00 0.00 0.00 0.00 0.00 0.00 0.00 0.00 0.00 0.00 0.00 0.00 0.00 0.00 0.00 0.00 0.00 0.00 0.00 0.00 0.00 0.00 0.00 0.00 0.00 0.00 0.00 0.00 0.00 0.00 0.00 0.00 0.00 0.00 0.00 0.00 0.00
0.00 0.00 0.00 0.00 0.00 0.00 0.00 0.00 0.00 0.00 0.00 0.00 0.00 0.00 0.00 0.00 0.00 0.00 0.00 0.00 0.00 0.00 0.00 0.00 0.00 0.00 0.00 0.00 0.00 0.00 0.00 0.00 0.00 0.00 0.00 0.00 0.00 0.00 0.00 0.00 0.00 0.00 0.00 0.00 0.00
0.00 0.00 0.00 0.00 0.00 0.00 0.00 0.00 0.00 0.00 0.00 0.00 0.00 0.00 0.00 0.00 0.00 0.00 0.00 0.00 0.00 0.00 0.00 0.00 0.00 0.00 0.00 0.00 0.00 0.00 0.00 0.00 0.00 0.00 0.00 0.00 0.00 0.00 0.00 0.00 0.00 0.00 0.00 0.00 0.00
0.00 0.00 0.00 0.00 0.00 0.00 0.00 0.00 0.00 0.00 0.00 0.00 0.00 0.00 0.00 0.00 0.00 0.00 0.00 0.00 0.00 0.00 0.00 0.00 0.00 0.00 0.00 0.00 0.00 0.00 0.00 0.00 0.00 0.00 0.00 0.00 0.00 0.00 0.00 0.00 0.00 0.00 0.00 0.00 0.00
0.00 0.00 0.00 0.00 0.00 0.00 0.00 0.00 0.00 0.00 0.00 0.00 0.00 0.00 0.00 0.00 0.00 0.00 0.00 0.00 0.00 0.00 0.00 0.00 0.00 0.00 0.00 0.00 0.00 0.00 0.00 0.00 0.00 0.00 0.00 0.00 0.00 0.00 0.00 0.00 0.00 0.00 0.00 0.00 0.00
0.00 0.00 0.00 0.00 0.00 0.00 0.00 0.00 0.00 0.00 0.00 0.00 0.00 0.00 0.00 0.00 0.00 0.00 0.00 0.00 0.00 0.00 0.00 0.00 0.00 0.00 0.00 0.00 0.00 0.00 0.00 0.00 0.00 0.00 0.00 0.00 0.00 0.00 0.00 0.00 0.00 0.00 0.00 0.00 0.00
0.00 0.00 0.00 0.00 0.00 0.00 0.00 0.00 0.00 0.00 0.00 0.00 0.00 0.00 0.00 0.00 0.00 0.00 0.00 0.00 0.00 0.00 0.00 0.00 0.00 0.00 0.00 0.00 0.00 0.00 0.00 0.00 0.00 0.00 0.00 0.00 0.00 0.00 0.00 0.00 0.00 0.00 0.00 0.00 0.00
0.00 0.00 0.00 0.00 0.00 0.00 0.00 0.00 0.00 0.00 0.00 0.00 0.00 0.00 0.00 0.00 0.00 0.00 0.00 0.00 0.00 0.00 0.00 0.00 0.00 0.00 0.00 0.00 0.00 0.00 0.00 0.00 0.00 0.00 0.00 0.01 0.00 0.00 0.00 0.00 0.00 0.00 0.00 0.00 0.00
0.00 0.00 0.00 0.00 0.00 0.00 0.00 0.00 0.00 0.00 0.00 0.00 0.00 0.00 0.00 0.00 0.00 0.00 0.00 0.00 0.00 0.00 0.00 0.00 0.00 0.00 0.00 0.00 0.00 0.00 0.00 0.00 0.00 0.00 0.00 0.01 0.00 0.00 0.00 0.00 0.00 0.00 0.00 0.00 0.00
0.00 0.00 0.00 0.00 0.00 0.00 0.00 0.00 0.00 0.00 0.00 0.00 0.00 0.00 0.00 0.00 0.00 0.00 0.00 0.00 0.00 0.00 0.00 0.00 0.00 0.00 0.00 0.00 0.00 0.00 0.00 0.00 0.00 0.00 0.00 0.00 0.00 0.00 0.00 0.00 0.00 0.00 0.00 0.00 0.00
0.00 0.00 0.00 0.00 0.00 0.00 0.00 0.00 0.00 0.00 0.00 0.00 0.00 0.00 0.00 0.00 0.00 0.00 0.00 0.00 0.00 0.00 0.00 0.00 0.00 0.00 0.00 0.00 0.00 0.00 0.00 0.00 0.00 0.00 0.00 0.00 0.00 0.00 0.00 0.00 0.00 0.00 0.00 0.00 0.00
0.00 0.00 0.00 0.00 0.00 0.00 0.00 0.00 0.00 0.00 0.00 0.00 0.00 0.00 0.00 0.00 0.00 0.00 0.00 0.00 0.00 0.00 0.00 0.00 0.00 0.00 0.00 0.00 0.00 0.00 0.00 0.00 0.00 0.00 0.00 0.00 0.00 0.00 0.00 0.00 0.00 0.00 0.00 0.00 0.00
0.00 0.00 0.00 0.00 0.00 0.00 0.00 0.00 0.00 0.00 0.00 0.00 0.00 0.00 0.00 0.00 0.00 0.00 0.00 0.00 0.00 0.00 0.00 0.00 0.00 0.00 0.00 0.00 0.00 0.00 0.00 0.00 0.00 0.00 0.00 0.00 0.00 0.00 0.00 0.00 0.00 0.00 0.00 0.00 0.00
MSLP
1022.94 1022.61 1022.34 1022.19 1021.92 1021.73 1021.49 1021.27 1021.00 1020.69 1020.65 1020.38 1020.26 1019.99 1019.71 1019.29 1018.63 1018.41 1018.85 1019.58 1019.11 1018.69 1018.40 1017.43 1016.56 1016.18 1015.65 1015.69 1015.67 1015.57 1015.14 1014.42 1014.58 1014.76 1014.69 1014.81 1015.12 1015.07 1014.86 1014.88 1014.43 1014.28 1014.48 1014.51 1014.15
1022.90 1022.97 1022.62 1022.47 1022.31 1021.90 1021.55 1021.22 1021.03 1020.87 1020.60 1020.30 1020.11 1019.95 1019.76 1019.47 1018.66 1019.08 1019.92 1019.51 1019.16 1018.64 1017.71 1017.34 1016.84 1016.40 1015.69 1015.97 1015.99 1016.05 1015.40 1015.19 1015.54 1015.56 1015.62 1015.71 1015.82 1015.75 1015.57 1015.20 1014.92 1014.85 1014.86 1014.87 1014.82
1023.08 1023.11 1022.90 1022.55 1022.33 1022.10 1021.71 1021.43 1021.27 1020.89 1020.44 1020.14 1020.01 1019.89 1019.79 1019.62 1019.00 1019.64 1019.90 1019.61 1019.33 1018.79 1017.99 1017.56 1017.39 1017.08 1016.34 1016.29 1016.53 1016.38 1016.33 1016.35 1016.10 1016.45 1016.55 1016.47 1016.49 1016.14 1016.15 1015.94 1015.81 1016.06 1016.06 1016.04 1015.74
1023.19 1023.02 1022.98 1022.89 1022.49 1022.14 1022.03 1021.66 1021.07 1020.92 1020.42 1020.06 1020.01 1019.95 1019.81 1019.39 1020.04 1019.97 1019.93 1019.69 1019.36 1018.79 1018.01 1017.68 1017.41 1017.25 1016.93 1016.83 1017.20 1017.19 1016.73 1016.83 1016.74 1016.98 1017.25 1017.08 1016.98 1016.84 1016.70 1016.33 1016.24 1016.45 1016.56 1016.68 1016.77
1023.23 1023.14 1022.96 1022.85 1022.49 1022.20 1022.01 1021.56 1021.30 1020.96 1020.54 1020.29 1020.15 1020.15 1019.89 1019.42 1020.07 1019.81 1019.83 1019.60 1019.15 1018.69 1018.35 1017.98 1017.73 1017.78 1017.54 1017.42 1017.59 1017.49 1017.13 1017.42 1017.36 1017.45 1017.49 1017.48 1017.46 1017.34 1016.68 1016.35 1016.60 1016.74 1016.90 1017.05 1017.19
1023.05 1023.06 1022.97 1022.78 1022.56 1022.19 1021.77 1021.60 1021.14 1020.80 1020.45 1020.23 1020.23 1020.05 1019.73 1019.71 1020.35 1019.95 1019.95 1019.62 1019.42 1018.84 1018.68 1018.48 1018.60 1018.50 1018.21 1018.17 1018.21 1018.21 1018.01 1017.64 1017.40 1017.46 1017.37 1017.22 1017.13 1017.23 1016.82 1016.73 1016.89 1016.93 1017.17 1017.35 1017.58
1023.11 1023.08 1023.03 1022.80 1022.41 1022.29 1021.85 1021.53 1021.24 1020.83 1020.58 1020.27 1020.16 1019.71 1019.39 1020.41 1020.04 1020.00 1019.83 1019.88 1019.67 1019.33 1019.15 1019.35 1019.25 1019.09 1018.82 1018.72 1018.87 1018.73 1018.42 1017.67 1016.93 1017.19 1017.55 1017.82 1017.42 1016.72 1016.59 1017.00 1017.19 1017.07 1017.18 1017.59 1017.88
1023.12 1022.94 1022.82 1022.63 1022.34 1022.32 1021.91 1021.42 1021.23 1020.82 1020.69 1020.66 1020.37 1019.74 1020.06 1020.38 1020.09 1019.92 1019.77 1019.78 1019.65 1019.59 1019.67 1019.71 1019.62 1019.41 1019.48 1019.55 1019.27 1019.08 1018.66 1017.94 1016.86 1017.50 1017.88 1018.33 1017.34 1017.09 1017.07 1017.27 1017.33 1017.27 1017.49 1017.95 1018.42
1023.18 1023.18 1023.00 1022.71 1022.32 1022.08 1022.13 1021.30 1021.36 1021.10 1020.65 1020.49 1020.26 1019.85 1020.57 1020.71 1020.43 1020.35 1020.14 1019.91 1019.98 1019.87 1019.82 1019.76 1019.73 1019.87 1020.06 1020.01 1019.65 1019.17 1019.07 1018.23 1017.59 1017.76 1018.09 1018.35 1017.70 1017.15 1017.34 1017.44 1017.55 1017.60 1017.94 1018.36 1018.83
1022.95 1023.04 1023.01 1022.64 1022.35 1021.98 1021.84 1021.77 1021.33 1020.97 1020.77 1020.09 1019.99 1020.08 1020.70 1020.57 1020.76 1020.61 1020.44 1020.32 1020.14 1020.05 1019.92 1019.85 1019.97 1020.07 1020.23 1020.41 1020.23 1020.01 1019.60 1018.86 1018.35 1018.15 1018.35 1018.51 1017.97 1017.72 1017.13 1017.15 1017.65 1017.87 1018.39 1018.96 1019.37
1022.88 1022.92 1022.74 1022.72 1022.28 1022.19 1021.89 1021.60 1021.95 1021.15 1020.68 1020.87 1020.42 1020.36 1020.48 1020.84 1020.95 1020.80 1020.65 1020.47 1020.27 1020.17 1020.01 1020.22 1020.44 1020.29 1020.06 1020.23 1020.52 1020.70 1020.51 1019.92 1019.31 1018.55 1018.48 1018.63 1018.32 1017.61 1017.18 1016.99 1017.61 1018.26 1018.80 1019.57 1019.99
1022.78 1022.88 1022.73 1022.59 1022.11 1022.21 1022.05 1021.29 1022.02 1022.28 1021.74 1021.20 1021.07 1021.04 1020.74 1020.64 1020.96 1021.08 1020.95 1020.84 1020.53 1020.33 1020.49 1020.92 1020.63 1020.59 1020.64 1020.89 1021.24 1021.30 1021.08 1020.43 1019.71 1019.19 1019.60 1019.16 1018.29 1017.65 1017.13 1016.92 1017.28 1018.42 1019.34 1020.17 1020.71
1022.48 1022.54 1022.76 1022.59 1022.17 1022.02 1021.87 1022.07 1022.28 1021.94 1021.79 1021.76 1021.29 1020.82 1021.35 1021.15 1020.55 1021.25 1021.34 1020.99 1020.73 1020.59 1020.72 1020.97 1020.84 1021.07 1021.23 1021.28 1021.54 1021.65 1021.59 1021.19 1020.85 1020.36 1020.14 1019.63 1018.18 1017.41 1016.46 1016.54 1017.99 1019.23 1020.25 1020.89 1021.43
1022.46 1022.27 1022.54 1022.68 1022.71 1021.76 1022.08 1022.37 1022.34 1022.18 1021.80 1022.06 1021.67 1021.54 1021.42 1021.21 1021.32 1021.48 1021.67 1021.70 1021.12 1021.18 1020.96 1021.10 1021.33 1021.49 1021.71 1021.79 1021.83 1022.00 1021.97 1021.88 1021.83 1021.91 1021.56 1020.84 1019.52 1018.34 1017.42 1017.82 1018.67 1019.69 1020.67 1021.31 1021.77
1022.38 1022.25 1022.55 1022.29 1022.29 1022.04 1022.40 1022.31 1022.35 1022.32 1022.43 1022.04 1021.99 1021.95 1021.61 1021.55 1021.78 1021.94 1022.09 1021.87 1021.59 1021.27 1021.95 1021.42 1021.55 1021.87 1021.99 1021.89 1021.90 1022.31 1022.47 1022.57 1022.80 1023.04 1022.86 1021.77 1021.31 1018.55 1018.05 1018.65 1019.22 1020.01 1020.93 1021.75 1022.25
1022.24 1022.42 1022.40 1022.30 1021.84 1022.62 1022.32 1022.47 1022.39 1022.82 1022.29 1022.37 1022.17 1022.09 1022.09 1022.03 1021.95 1022.10 1022.18 1022.26 1022.32 1021.98 1021.97 1021.82 1021.98 1022.20 1022.07 1022.04 1022.51 1022.72 1023.01 1023.03 1023.35 1024.02 1023.69 1022.27 1021.84 1019.69 1019.19 1019.49 1019.43 1020.15 1021.08 1021.82 1022.38
1021.87 1022.31 1022.45 1022.11 1022.44 1022.79 1022.53 1022.46 1023.04 1022.82 1022.65 1022.73 1022.37 1022.42 1022.25 1022.39 1022.39 1022.33 1022.38 1022.55 1022.55 1022.51 1022.33 1022.02 1022.07 1022.40 1022.69 1022.67 1022.95 1023.45 1023.97 1024.31 1024.65 1025.11 1024.31 1023.15 1022.28 1020.62 1020.20 1019.95 1019.88 1020.24 1021.04 1021.82 1022.41
1021.86 1022.25 1022.42 1022.35 1022.68 1022.64 1022.84 1023.03 1022.76 1022.00 1022.33 1022.51 1022.58 1022.75 1022.77 1022.88 1022.86 1022.88 1022.83 1022.72 1022.61 1022.85 1022.98 1022.75 1022.78 1023.02 1023.17 1023.17 1023.46 1023.76 1024.51 1025.44 1026.07 1025.93 1025.08 1023.86 1022.26 1020.61 1020.26 1020.21 1019.94 1020.22 1021.05 1021.80 1022.41
1021.82 1022.29 1022.38 1022.77 1022.65 1022.71 1023.22 1023.17 1021.78 1021.60 1021.90 1022.41 1023.17 1023.43 1023.53 1023.56 1023.56 1023.39 1023.34 1023.08 1023.34 1023.47 1023.77 1023.53 1023.71 1023.72 1023.74 1023.78 1024.03 1024.26 1024.72 1025.29 1026.24 1026.40 1026.34 1023.92 1021.93 1021.09 1020.80 1020.71 1020.80 1021.17 1021.55 1021.97 1022.43
1021.48 1022.17 1022.49 1022.84 1022.79 1022.88 1023.17 1022.48 1021.85 1021.42 1021.75 1022.25 1022.64 1023.09 1023.72 1024.20 1024.11 1023.85 1023.70 1023.85 1024.11 1024.32 1024.34 1024.66 1024.64 1024.28 1024.49 1024.51 1024.37 1024.70 1025.40 1025.94 1026.84 1027.29 1026.19 1024.06 1022.50 1021.36 1021.20 1021.21 1021.47 1021.61 1021.99 1022.27 1022.51
1021.42 1022.22 1023.04 1022.93 1022.95 1022.93 1023.06 1022.38 1021.93 1021.71 1021.80 1022.31 1022.59 1023.33 1023.78 1024.40 1024.48 1024.31 1024.07 1024.84 1024.48 1024.93 1025.10 1025.13 1025.51 1025.51 1025.29 1025.05 1024.70 1025.49 1025.90 1026.55 1027.14 1027.33 1026.80 1025.54 1022.49 1020.86 1021.16 1021.30 1021.25 1021.53 1021.87 1022.08 1022.50
1020.91 1022.42 1023.26 1023.10 1023.30 1023.22 1022.91 1022.24 1021.96 1022.31 1022.50 1022.50 1022.64 1023.31 1024.16 1025.01 1025.31 1025.01 1024.86 1024.99 1025.09 1025.37 1025.77 1026.00 1026.34 1026.38 1025.68 1025.32 1025.39 1025.86 1026.35 1027.07 1028.04 1027.70 1026.90 1025.83 1021.47 1022.00 1021.77 1021.64 1021.91 1021.78 1021.79 1022.01 1022.15
1020.47 1022.31 1023.13 1023.24 1023.11 1023.02 1023.01 1022.67 1022.49 1022.71 1022.83 1022.94 1023.20 1023.58 1024.64 1025.37 1025.95 1025.79 1025.70 1025.99 1025.87 1026.00 1026.22 1026.73 1027.39 1027.56 1026.71 1026.67 1026.30 1026.46 1026.78 1027.22 1027.99 1028.35 1026.95 1026.67 1023.26 1022.33 1022.40 1022.50 1022.43 1022.31 1022.38 1022.15 1022.34
1019.97 1021.96 1023.13 1023.04 1022.75 1022.34 1022.57 1022.79 1022.90 1022.93 1022.93 1023.13 1023.72 1024.36 1025.27 1026.02 1026.54 1026.65 1026.61 1026.87 1026.89 1026.98 1027.16 1027.53 1028.35 1028.73 1028.55 1027.58 1027.17 1027.20 1027.45 1027.72 1028.22 1028.16 1027.11 1026.21 1024.38 1023.25 1023.54 1023.66 1023.34 1023.08 1022.80 1022.72 1022.72
1018.37 1019.52 1020.08 1021.84 1021.88 1021.83 1021.75 1022.04 1022.58 1023.12 1023.26 1023.61 1024.31 1024.39 1024.94 1026.54 1027.31 1027.43 1027.22 1027.81 1028.15 1028.08 1028.44 1029.06 1029.81 1029.89 1029.66 1029.20 1028.81 1028.31 1028.31 1028.19 1028.11 1027.95 1028.42 1026.18 1025.66 1024.53 1024.34 1024.66 1024.31 1023.85 1023.58 1023.52 1023.54
1017.66 1018.85 1020.09 1020.25 1020.13 1021.39 1021.64 1021.77 1021.88 1022.69 1022.95 1023.59 1024.07 1024.27 1025.08 1025.84 1026.21 1026.95 1027.51 1028.13 1028.37 1029.29 1029.77 1030.49 1030.95 1031.19 1031.14 1030.20 1029.65 1028.99 1028.81 1027.87 1027.98 1027.76 1027.51 1026.56 1025.56 1024.85 1024.75 1024.71 1024.81 1024.84 1024.45 1024.34 1024.52
1017.04 1017.84 1018.11 1019.88 1020.07 1020.76 1020.23 1020.62 1021.22 1021.86 1022.93 1023.15 1023.49 1024.27 1025.23 1025.66 1026.28 1026.80 1027.46 1027.99 1028.43 1029.44 1030.84 1031.66 1032.30 1033.14 1032.54 1031.71 1030.69 1029.53 1027.64 1027.54 1027.46 1027.35 1027.55 1026.94 1026.03 1025.47 1025.41 1025.38 1025.38 1025.48 1025.25 1025.13 1025.38
Thickness
5618 5621 5624 5626 5629 5631 5633 5636 5639 5643 5643 5645 5646 5647 5649 5651 5656 5657 5650 5643 5644 5644 5643 5647 5648 5646 5648 5640 5640 5638 5622 5625 5625 5621 5621 5628 5619 5626 5628 5620 5624 5627 5623 5623 5630
5617 5615 5619 5620 5621 5626 5630 5633 5635 5637 5640 5642 5643 5644 5646 5648 5655 5647 5639 5639 5639 5640 5644 5640 5637 5638 5638 5632 5630 5620 5618 5620 5622 5620 5615 5616 5613 5612 5612 5611 5612 5611 5615 5617 5617
5613 5612 5614 5618 5620 5621 5625 5628 5629 5633 5637 5639 5640 5642 5642 5642 5648 5638 5634 5634 5632 5633 5636 5635 5631 5627 5626 5627 5621 5618 5608 5613 5618 5611 5609 5606 5604 5611 5602 5598 5602 5596 5598 5600 5604
5609 5612 5612 5611 5614 5617 5617 5622 5628 5629 5633 5636 5636 5635 5637 5640 5636 5631 5629 5628 5627 5628 5629 5627 5624 5618 5616 5614 5613 5602 5614 5611 5610 5606 5600 5597 5600 5597 5597 5597 5600 5596 5594 5591 5589
5604 5605 5607 5608 5610 5613 5614 5618 5621 5624 5628 5630 5631 5630 5632 5637 5625 5625 5623 5622 5622 5622 5619 5618 5616 5611 5607 5609 5605 5600 5607 5603 5602 5598 5595 5596 5589 5589 5593 5600 5595 5592 5588 5584 5581
5600 5601 5602 5605 5606 5609 5613 5614 5618 5621 5623 5626 5625 5626 5630 5629 5618 5619 5617 5616 5614 5615 5612 5611 5605 5604 5602 5600 5595 5594 5593 5595 5597 5594 5595 5592 5590 5589 5592 5591 5588 5587 5581 5579 5574
5593 5594 5596 5598 5603 5603 5609 5611 5613 5617 5618 5621 5621 5624 5626 5613 5615 5613 5612 5608 5607 5605 5602 5599 5598 5595 5595 5592 5589 5587 5581 5589 5597 5593 5588 5583 5580 5585 5590 5585 5579 5581 5578 5572 5568
5588 5591 5593 5593 5597 5597 5601 5606 5608 5612 5613 5611 5613 5618 5610 5608 5609 5608 5606 5603 5601 5599 5594 5592 5590 5590 5585 5582 5582 5577 5580 5573 5593 5585 5580 5572 5571 5579 5580 5576 5573 5574 5571 5564 5558
5581 5582 5585 5588 5592 5595 5592 5602 5600 5602 5606 5607 5609 5611 5601 5599 5599 5597 5596 5594 5592 5590 5588 5586 5584 5579 5575 5569 5568 5575 5560 5573 5579 5582 5573 5566 5565 5575 5573 5569 5565 5564 5562 5556 5550
5576 5577 5577 5582 5586 5589 5591 5590 5594 5598 5598 5602 5603 5603 5595 5593 5589 5587 5587 5585 5583 5581 5580 5578 5574 5569 5565 5560 5553 5556 5560 5567 5566 5568 5563 5555 5559 5566 5570 5565 5559 5557 5554 5546 5539
5569 5570 5573 5573 5579 5580 5584 5587 5588 5594 5594 5588 5592 5592 5590 5585 5581 5578 5577 5576 5576 5574 5572 5569 5561 5558 5570 5563 5559 5550 5546 5546 5553 5560 5554 5549 5550 5560 5564 5561 5553 5547 5543 5533 5527
5560 5562 5565 5567 5573 5573 5575 5587 5576 5575 5580 5582 5581 5579 5581 5580 5572 5568 5569 5566 5565 5564 5563 5555 5552 5557 5555 5549 5542 5538 5534 5537 5547 5552 5538 5539 5546 5554 5558 5558 5552 5540 5530 5518 5513
5556 5557 5556 5559 5564 5568 5571 5570 5566 5568 5578 5569 5573 5577 5567 5568 5571 5560 5558 5558 5557 5557 5554 5547 5553 5547 5543 5540 5535 5532 5527 5526 5526 5531 5531 5529 5538 5548 5561 5557 5535 5522 5511 5507 5499
5547 5552 5551 5551 5556 5562 5562 5558 5557 5558 5571 5562 5562 5562 5561 5560 5556 5552 5547 5545 5548 5545 5547 5544 5539 5534 5529 5525 5526 5515 5522 5519 5518 5508 5490 5523 5477 5535 5544 5531 5521 5509 5499 5492 5486
5539 5543 5543 5548 5550 5555 5550 5550 5549 5549 5557 5558 5550 5547 5549 5550 5544 5539 5536 5536 5537 5541 5530 5535 5530 5523 5518 5521 5521 5514 5511 5508 5504 5488 5479 5504 5464 5521 5534 5514 5506 5496 5489 5477 5473
5532 5534 5536 5539 5545 5539 5542 5540 5542 5545 5550 5532 5542 5538 5537 5537 5535 5531 5529 5526 5522 5525 5524 5522 5518 5513 5515 5513 5506 5502 5496 5497 5493 5477 5423 5485 5480 5494 5497 5500 5497 5483 5478 5467 5462
5528 5527 5527 5531 5534 5529 5531 5534 5533 5538 5528 5520 5527 5529 5531 5524 5524 5522 5519 5511 5511 5505 5516 5518 5510 5506 5499 5496 5495 5485 5471 5427 5423 5414 5423 5469 5462 5485 5475 5477 5484 5470 5464 5458 5450
5517 5518 5519 5522 5520 5521 5520 5522 5527 5529 5518 5520 5524 5520 5520 5515 5516 5510 5509 5504 5510 5504 5495 5500 5486 5494 5489 5486 5477 5476 5463 5418 5401 5412 5442 5463 5434 5478 5467 5466 5471 5464 5453 5446 5439
5508 5507 5509 5508 5510 5511 5511 5507 5529 5523 5513 5509 5507 5495 5499 5499 5496 5497 5497 5503 5491 5489 5481 5480 5484 5477 5473 5469 5466 5461 5437 5456 5407 5399 5383 5440 5461 5454 5446 5446 5447 5440 5435 5428 5424
5500 5498 5499 5497 5498 5499 5493 5522 5508 5518 5513 5507 5507 5494 5480 5467 5483 5486 5489 5481 5473 5467 5467 5463 5451 5467 5456 5455 5453 5446 5443 5412 5392 5354 5359 5425 5438 5439 5433 5426 5423 5420 5415 5412 5411
5488 5488 5481 5484 5485 5491 5487 5500 5498 5502 5501 5498 5490 5468 5485 5462 5474 5469 5482 5458 5466 5454 5456 5459 5444 5446 5447 5437 5445 5417 5409 5408 5407 5401 5354 5372 5416 5446 5432 5425 5410 5409 5405 5402 5396
5481 5474 5466 5469 5473 5467 5477 5483 5492 5478 5477 5481 5487 5477 5467 5454 5452 5467 5469 5458 5456 5446 5437 5437 5430 5414 5437 5436 5428 5419 5411 5404 5356 5386 5392 5387 5413 5418 5409 5406 5394 5396 5395 5393 5388
5469 5458 5453 5453 5462 5461 5458 5468 5473 5465 5463 5467 5469 5466 5453 5442 5439 5447 5455 5437 5439 5436 5423 5421 5400 5375 5406 5417 5414 5404 5406 5396 5364 5344 5373 5351 5379 5409 5394 5383 5381 5378 5379 5378 5375
5457 5444 5438 5442 5450 5460 5455 5452 5450 5451 5459 5461 5453 5446 5437 5420 5420 5412 5437 5423 5421 5422 5417 5411 5396 5382 5387 5411 5400 5401 5391 5384 5342 5321 5349 5354 5356 5380 5370 5353 5359 5360 5361 5358 5354
5458 5456 5451 5433 5440 5444 5454 5450 5444 5436 5443 5443 5436 5443 5436 5399 5396 5394 5417 5407 5405 5407 5398 5385 5357 5363 5367 5376 5371 5371 5364 5362 5347 5341 5296 5339 5333 5346 5340 5330 5334 5338 5338 5338 5336
5444 5439 5432 5439 5446 5438 5438 5437 5443 5433 5432 5431 5426 5435 5425 5412 5418 5397 5391 5389 5394 5379 5371 5364 5350 5354 5317 5365 5361 5350 5349 5350 5343 5335 5323 5325 5324 5337 5332 5321 5310 5308 5310 5315 5309
5440 5439 5445 5429 5433 5432 5446 5441 5442 5432 5430 5431 5429 5426 5420 5416 5408 5407 5401 5393 5386 5368 5350 5337 5333 5311 5304 5341 5325 5293 5335 5340 5319 5309 5287 5295 5307 5313 5297 5293 5277 5286 5287 5288 5288